sat.trackr.live / text

‹ back to catalog

STARLINK-31401

NORAD 59417 · 2024-064V

PAYLOAD ACTIVE UNKNOWN

§ Identity

Operator
Country
US
Launch date
2024-04-05
Launch site
AFETR
Launch vehicle
Mass (kg)
RCS (m²)

Purposes: comms

External: N2YO · Heavens-Above · Gunter

§ Orbital elements

Epoch: 2026-05-24T20:26:39.388992Z

Period
94.27 min
Inclination
43.0035°
Eccentricity
0.0000731
Mean motion
15.27575167 rev/d
Perigee alt
482.6 km
Apogee alt
483.6 km
Semi-major
6,861.2 km
B*
-8.5861e-7
RAAN
339.1352°
Arg perigee
280.0512°
Mean anomaly
80.0257°
Rev number
12,070

§ Raw data

STARLINK-314011 59417U 24064V   26144.85184478 -.00000285  00000+0 -85861-6 0  99942 59417  43.0035 339.1352 0000731 280.0512  80.0257 15.27575167120706

JSON: /api/v1/satellites/59417 · /tle

For live sub-satellite position, see the globe view (requires WebGL).

§ Visibility from observer

Set your observer location to see the next 7 days of passes ≥ 10°. The values pass through the URL so the page stays shareable.

No JS? Fill the form by hand. The geolocation button needs JavaScript.